Location: Hancock Field Station
(44.9202°N, 120.4259°W)
Time: 13:47:11
(UTC-07:00)

Nadezhda 4 Rocket - Visible Passes

Search period start: 30 July 2016 00:00
Search period end: 09 August 2016 00:00
Orbit: 949 x 993 km, 82.9° (Epoch: 29 July)

Date Brightness Start Highest point End Pass type
(mag) Time Alt. Az. Time Alt. Az. Time Alt. Az.
30 Jul 6.1 01:42:30 10° NNE 01:46:47 19° ENE 01:51:04 10° ESE visible
30 Jul 3.9 03:26:34 10° NNW 03:32:46 75° W 03:36:48 23° S visible
31 Jul 5.4 02:05:50 10° N 02:11:18 31° ENE 02:15:40 15° SE visible
31 Jul 4.4 03:50:54 10° NNW 03:56:43 44° W 04:00:12 23° SSW visible
01 Aug 4.6 02:29:34 10° N 02:35:38 53° ENE 02:39:07 25° SE visible
01 Aug 5.1 04:15:35 10° NNW 04:20:32 26° W 04:23:39 17° SW visible
02 Aug 6.3 01:10:03 10° NNE 01:13:36 15° ENE 01:17:10 10° E visible
02 Aug 3.9 02:53:34 10° N 02:59:49 89° E 03:02:35 36° S visible
02 Aug 5.7 04:40:58 10° NW 04:44:11 15° WNW 04:47:08 11° WSW visible
03 Aug 5.6 01:33:05 10° NNE 01:38:12 26° ENE 01:41:35 17° ESE visible
03 Aug 4.2 03:17:48 10° NNW 03:23:50 54° W 03:26:07 36° SSW visible
04 Aug 4.9 01:56:42 10° N 02:02:37 43° ENE 02:05:07 30° ESE visible
04 Aug 4.8 03:42:20 10° NNW 03:47:42 32° W 03:49:39 26° WSW visible
05 Aug 6.3 00:37:53 10° NE 00:40:24 12° ENE 00:42:53 10° E visible
05 Aug 4.1 02:20:36 10° N 02:26:50 73° E 02:28:41 48° SSE visible
05 Aug 5.5 04:07:20 10° NW 04:11:25 19° W 04:13:14 16° WSW visible
06 Aug 5.8 01:00:26 10° NNE 01:05:05 21° ENE 01:07:45 16° E visible
06 Aug 4.0 02:44:44 10° NNW 02:50:56 68° W 02:52:17 53° SSW visible
07 Aug 5.1 01:23:53 10° N 01:29:33 35° ENE 01:31:22 30° ESE visible
07 Aug 4.5 03:09:08 10° NNW 03:14:52 39° W 03:15:55 37° WSW visible
08 Aug 4.3 01:47:40 10° N 01:53:52 59° ENE 01:55:00 51° ESE visible
08 Aug 5.2 03:33:55 10° NNW 03:38:38 23° W 03:39:33 22° W visible
